Location: 5810 Zion Rd, Cleves, OH 45002, USA
(39.1922°N, 84.7113°W)
Time: 18:17:22
(UTC-05:00)

ITAMSAT 1 - Visible Passes

Search period start: 23 January 2020 00:00
Search period end: 02 February 2020 00:00
Orbit: 783 x 797 km, 98.9° (Epoch: 23 January)

Date Brightness Start Highest point End Pass type
(mag) Time Alt. Az. Time Alt. Az. Time Alt. Az.
23 Jan 7.8 06:14:58 10° NNE 06:20:11 77° ESE 06:25:22 10° S visible
24 Jan 9.0 05:45:48 10° NNE 05:50:40 39° E 05:55:30 10° SSE visible
24 Jan 10.7 18:44:08 10° SW 18:47:20 16° W 18:50:33 10° NW visible
25 Jan 10.1 05:17:10 10° NE 05:21:02 21° E 05:24:52 10° SE visible
25 Jan 7.9 06:55:44 10° N 07:00:39 45° WNW 07:05:34 10° SW visible
25 Jan 9.8 18:13:06 10° SSW 18:17:39 31° W 18:22:15 10° NW visible
26 Jan 10.9 04:50:44 10° E 04:51:15 10° E 04:51:48 10° E visible
26 Jan 7.6 06:26:06 10° NNE 06:31:18 85° WNW 06:36:30 10° SSW visible
27 Jan 8.6 05:56:47 10° NNE 06:01:51 50° E 06:06:52 10° S visible
27 Jan 10.9 18:56:23 10° WSW 18:58:35 13° W 19:00:49 10° WNW visible
28 Jan 9.8 05:27:56 10° NE 05:32:15 26° E 05:36:34 10° SSE visible
28 Jan 8.2 07:07:01 10° N 07:11:43 36° WNW 07:16:25 10° SW visible
28 Jan 10.3 18:24:40 10° SSW 18:28:52 25° W 18:33:05 10° NW visible
29 Jan 10.7 05:00:01 10° ENE 05:02:32 13° E 05:05:03 10° ESE visible
29 Jan 7.6 06:37:15 10° N 06:42:26 68° WNW 06:47:35 10° SSW visible
30 Jan 8.1 06:07:50 10° NNE 06:13:00 64° ESE 06:18:09 10° S visible
31 Jan 9.4 05:38:47 10° NNE 05:43:27 33° E 05:48:08 10° SSE visible
31 Jan 10.6 18:36:23 10° SW 18:40:05 20° W 18:43:49 10° NW visible
01 Feb 10.4 05:10:23 10° NE 05:13:47 17° E 05:17:11 10° SE visible
01 Feb 7.8 06:48:28 10° N 06:53:32 54° WNW 06:58:34 10° SSW visible
